• In Hungary
  • List of Countries
  • For 7 days
  • Water Temperature
  • Satellite Maps
  • Weather Map
  • News
  • Weather Widgets
  • user-avatar
    Login

    Hourly Weather Aleksandrovka

    Today, 21 June, Thursday

    Time Temperature Precipitation Wind Pressure Humidity
    00:00 +17°C° 0 mm 4 mps 739 mmHg 91%
    01:00 +17°C° 0 mm 3 mps 739 mmHg 94%
    02:00 +16°C° 0 mm 3 mps 739 mmHg 94%
    03:00 +14°C° 0 mm 3 mps 740 mmHg 94%
    04:00 +13°C° 0 mm 3 mps 740 mmHg 93%
    05:00 +14°C° 0 mm 4 mps 740 mmHg 87%
    06:00 +15°C° 0 mm 4 mps 740 mmHg 81%
    07:00 +17°C° 0 mm 4 mps 741 mmHg 74%
    08:00 +17°C° 0 mm 5 mps 741 mmHg 67%
    09:00 +19°C° 0 mm 6 mps 741 mmHg 59%
    10:00 +21°C° 0 mm 7 mps 741 mmHg 51%
    11:00 +21°C° 0 mm 7 mps 741 mmHg 50%
    12:00 +22°C° 0 mm 7 mps 741 mmHg 48%
    13:00 +22°C° 0 mm 7 mps 741 mmHg 47%
    14:00 +22°C° 0 mm 7 mps 741 mmHg 48%
    15:00 +22°C° 0 mm 7 mps 741 mmHg 50%
    16:00 +22°C° 0 mm 7 mps 740 mmHg 51%
    17:00 +21°C° 0.1 mm 7 mps 740 mmHg 56%
    18:00 +20°C° 0.1 mm 6 mps 740 mmHg 60%
    19:00 +20°C° 0.1 mm 5 mps 740 mmHg 65%
    20:00 +17°C° 0.1 mm 5 mps 740 mmHg 69%
    21:00 +17°C° 0.1 mm 4 mps 740 mmHg 72%
    22:00 +14°C° 0.1 mm 3 mps 740 mmHg 76%
    23:00 +14°C° 0 mm 4 mps 740 mmHg 77%

    Tomorrow, 22 June, Friday

    Time Temperature Precipitation Wind Pressure Humidity
    00:00 +14°C° 0 mm 4 mps 740 mmHg 78%
    01:00 +14°C° 0 mm 4 mps 740 mmHg 79%
    02:00 +13°C° 0 mm 4 mps 740 mmHg 82%
    03:00 +13°C° 0 mm 4 mps 740 mmHg 85%
    04:00 +12°C° 0 mm 5 mps 740 mmHg 88%
    05:00 +13°C° 0 mm 5 mps 740 mmHg 84%
    06:00 +14°C° 0 mm 6 mps 741 mmHg 80%
    07:00 +15°C° 0 mm 6 mps 741 mmHg 75%
    08:00 +16°C° 0 mm 7 mps 741 mmHg 69%
    09:00 +17°C° 0 mm 7 mps 741 mmHg 62%
    10:00 +20°C° 0 mm 7 mps 741 mmHg 55%
    11:00 +20°C° 0 mm 7 mps 741 mmHg 55%
    12:00 +20°C° 0 mm 7 mps 742 mmHg 56%
    13:00 +21°C° 0 mm 8 mps 742 mmHg 56%
    14:00 +21°C° 0 mm 7 mps 742 mmHg 59%
    15:00 +21°C° 0 mm 7 mps 742 mmHg 61%
    16:00 +21°C° 0 mm 7 mps 742 mmHg 63%
    17:00 +20°C° 0 mm 6 mps 742 mmHg 66%
    18:00 +20°C° 0 mm 5 mps 743 mmHg 69%
    19:00 +19°C° 0 mm 4 mps 743 mmHg 72%
    20:00 +18°C° 0 mm 4 mps 743 mmHg 78%
    21:00 +17°C° 0 mm 3 mps 743 mmHg 84%
    22:00 +15°C° 0 mm 2 mps 743 mmHg 89%
    23:00 +15°C° 0 mm 2 mps 744 mmHg 90%

    Day after tomorrow, 23 June, Saturday

    Time Temperature Precipitation Wind Pressure Humidity
    00:00 +14°C° 0 mm 2 mps 744 mmHg 91%
    01:00 +14°C° 0 mm 2 mps 744 mmHg 92%
    02:00 +14°C° 0 mm 2 mps 744 mmHg 93%
    03:00 +14°C° 0 mm 2 mps 744 mmHg 94%
    04:00 +12°C° 0 mm 3 mps 744 mmHg 94%
    05:00 +14°C° 0 mm 3 mps 744 mmHg 90%
    06:00 +16°C° 0 mm 3 mps 745 mmHg 85%
    07:00 +18°C° 0 mm 3 mps 745 mmHg 81%
    08:00 +20°C° 0 mm 3 mps 745 mmHg 74%
    09:00 +21°C° 0 mm 4 mps 745 mmHg 67%
    10:00 +23°C° 0 mm 4 mps 745 mmHg 60%
    11:00 +25°C° 0 mm 4 mps 745 mmHg 57%
    12:00 +26°C° 0 mm 4 mps 745 mmHg 54%
    13:00 +27°C° 0 mm 5 mps 745 mmHg 50%
    14:00 +27°C° 0 mm 5 mps 745 mmHg 50%
    15:00 +27°C° 0 mm 5 mps 744 mmHg 50%
    16:00 +27°C° 0 mm 5 mps 744 mmHg 49%
    17:00 +26°C° 0 mm 5 mps 744 mmHg 54%
    18:00 +25°C° 0 mm 4 mps 744 mmHg 58%
    19:00 +24°C° 0 mm 3 mps 744 mmHg 63%
    20:00 +21°C° 0 mm 3 mps 744 mmHg 68%
    21:00 +20°C° 0 mm 2 mps 745 mmHg 74%
    22:00 +18°C° 0 mm 2 mps 745 mmHg 79%
    23:00 +17°C° 0 mm 2 mps 745 mmHg 81%

    24 June, Sunday

    Time Temperature Precipitation Wind Pressure Humidity
    00:00 +17°C° 0 mm 2 mps 745 mmHg 82%
    01:00 +16°C° 0 mm 2 mps 745 mmHg 84%
    02:00 +16°C° 0 mm 2 mps 745 mmHg 84%
    03:00 +15°C° 0 mm 2 mps 745 mmHg 85%
    04:00 +15°C° 0 mm 2 mps 745 mmHg 85%
    05:00 +17°C° 0 mm 2 mps 746 mmHg 80%
    06:00 +18°C° 0 mm 2 mps 746 mmHg 75%
    07:00 +20°C° 0 mm 2 mps 746 mmHg 70%
    08:00 +23°C° 0 mm 2 mps 746 mmHg 64%
    09:00 +24°C° 0 mm 2 mps 746 mmHg 58%
    10:00 +26°C° 0 mm 2 mps 746 mmHg 53%
    11:00 +27°C° 0 mm 2 mps 746 mmHg 50%
    12:00 +27°C° 0 mm 2 mps 746 mmHg 46%
    13:00 +28°C° 0 mm 2 mps 746 mmHg 43%
    14:00 +29°C° 0 mm 2 mps 746 mmHg 42%
    15:00 +29°C° 0 mm 2 mps 746 mmHg 42%
    16:00 +29°C° 0 mm 2 mps 746 mmHg 41%
    17:00 +29°C° 0 mm 2 mps 746 mmHg 46%
    18:00 +28°C° 0 mm 2 mps 746 mmHg 51%
    19:00 +27°C° 0 mm 2 mps 746 mmHg 55%
    20:00 +25°C° 0 mm 1 mps 746 mmHg 60%
    21:00 +23°C° 0 mm 1 mps 746 mmHg 64%
    22:00 +21°C° 0 mm 1 mps 746 mmHg 69%
    23:00 +21°C° 0 mm 1 mps 746 mmHg 70%

    25 June, Monday

    Time Temperature Precipitation Wind Pressure Humidity
    00:00 +18°C° 0 mm 0 mps 746 mmHg 72%
    01:00 +18°C° 0 mm 0 mps 746 mmHg 74%
    02:00 +17°C° 0 mm 0 mps 746 mmHg 76%
    03:00 +17°C° 0 mm 0 mps 746 mmHg 77%
    04:00 +17°C° 0 mm 0 mps 746 mmHg 78%
    05:00 +18°C° 0 mm 0 mps 747 mmHg 74%
    06:00 +20°C° 0 mm 0 mps 747 mmHg 69%
    07:00 +22°C° 0 mm 0 mps 747 mmHg 64%
    08:00 +23°C° 0 mm 0 mps 747 mmHg 59%
    09:00 +26°C° 0 mm 1 mps 747 mmHg 55%
    10:00 +28°C° 0 mm 1 mps 747 mmHg 50%
    11:00 +28°C° 0 mm 1 mps 746 mmHg 47%
    12:00 +29°C° 0 mm 1 mps 746 mmHg 43%
    13:00 +30°C° 0 mm 1 mps 746 mmHg 40%
    14:00 +30°C° 0 mm 2 mps 746 mmHg 39%
    15:00 +30°C° 0 mm 2 mps 746 mmHg 39%
    16:00 +31°C° 0 mm 2 mps 746 mmHg 38%
    17:00 +30°C° 0 mm 2 mps 746 mmHg 43%
    18:00 +29°C° 0 mm 2 mps 746 mmHg 48%
    19:00 +28°C° 0 mm 2 mps 746 mmHg 53%
    20:00 +27°C° 0 mm 2 mps 746 mmHg 59%
    21:00 +25°C° 0 mm 2 mps 745 mmHg 65%
    22:00 +23°C° 0 mm 2 mps 745 mmHg 70%
    23:00 +23°C° 0 mm 2 mps 745 mmHg 74%

    26 June, Tuesday

    Time Temperature Precipitation Wind Pressure Humidity
    00:00 +22°C° 0 mm 1 mps 745 mmHg 78%
    01:00 +22°C° 0 mm 1 mps 745 mmHg 81%
    02:00 +21°C° 0 mm 1 mps 744 mmHg 83%
    03:00 +21°C° 0 mm 1 mps 744 mmHg 85%
    04:00 +21°C° 0 mm 1 mps 744 mmHg 87%
    05:00 +21°C° 0 mm 2 mps 744 mmHg 83%
    06:00 +23°C° 0 mm 2 mps 744 mmHg 79%
    07:00 +25°C° 0 mm 2 mps 744 mmHg 75%
    08:00 +26°C° 0.1 mm 3 mps 744 mmHg 71%
    09:00 +27°C° 0.1 mm 3 mps 744 mmHg 67%
    10:00 +28°C° 0.1 mm 4 mps 744 mmHg 63%
    11:00 +28°C° 1 mm 4 mps 744 mmHg 62%
    12:00 +29°C° 1 mm 4 mps 743 mmHg 61%
    13:00 +29°C° 1 mm 3 mps 743 mmHg 60%
    14:00 +29°C° 1 mm 3 mps 743 mmHg 61%
    15:00 +28°C° 1 mm 3 mps 743 mmHg 63%
    16:00 +28°C° 1 mm 3 mps 743 mmHg 64%
    17:00 +27°C° 0.1 mm 3 mps 743 mmHg 69%
    18:00 +26°C° 0.1 mm 3 mps 743 mmHg 73%
    19:00 +26°C° 0.1 mm 3 mps 743 mmHg 78%
    20:00 +24°C° 0.1 mm 3 mps 743 mmHg 82%
    21:00 +22°C° 0.1 mm 3 mps 743 mmHg 87%
    22:00 +21°C° 0.1 mm 3 mps 743 mmHg 92%
    23:00 +20°C° 0 mm 3 mps 743 mmHg 93%
    Show more